TimeEST,TemperatureF,Dew PointF,Humidity,Sea Level PressureIn,VisibilityMPH,Wind Direction,Wind SpeedMPH,Gust SpeedMPH,PrecipitationIn,Events,Conditions,WindDirDegrees,DateUTC
12:53 AM,54.0,51.1,90,30.31,7.0,NE,8.1,-,N/A,,Overcast,40,2013-01-05 05:53:00
1:53 AM,53.1,50.0,89,30.30,8.0,North,6.9,-,N/A,,Overcast,10,2013-01-05 06:53:00
2:44 AM,51.8,48.2,88,30.29,8.0,NNE,4.6,-,N/A,,Scattered Clouds,20,2013-01-05 07:44:00
2:53 AM,51.1,48.9,92,30.29,7.0,NNE,4.6,-,N/A,,Partly Cloudy,30,2013-01-05 07:53:00
3:53 AM,51.1,48.9,92,30.29,8.0,North,5.8,-,N/A,,Overcast,360,2013-01-05 08:53:00
4:16 AM,51.8,48.2,88,30.29,8.0,NNE,4.6,-,N/A,,Overcast,20,2013-01-05 09:16:00
4:53 AM,50.0,46.9,89,30.29,9.0,NNE,4.6,-,N/A,,Overcast,30,2013-01-05 09:53:00
5:27 AM,50.0,46.4,87,30.30,9.0,NNE,3.5,-,N/A,,Scattered Clouds,20,2013-01-05 10:27:00
5:53 AM,48.9,46.0,90,30.30,8.0,Calm,Calm,-,N/A,,Clear,0,2013-01-05 10:53:00
6:53 AM,48.0,46.0,93,30.31,7.0,North,5.8,-,N/A,,Clear,350,2013-01-05 11:53:00
7:53 AM,48.0,46.0,93,30.32,6.0,North,4.6,-,N/A,,Clear,360,2013-01-05 12:53:00
8:34 AM,50.0,46.4,87,30.34,8.0,North,4.6,-,N/A,,Mostly Cloudy,360,2013-01-05 13:34:00
8:53 AM,51.1,46.0,83,30.34,9.0,North,3.5,-,N/A,,Overcast,360,2013-01-05 13:53:00
9:53 AM,55.0,48.0,77,30.33,10.0,NE,8.1,-,N/A,,Overcast,40,2013-01-05 14:53:00
10:53 AM,60.1,50.0,69,30.32,10.0,NE,6.9,-,N/A,,Overcast,40,2013-01-05 15:53:00
11:53 AM,64.9,52.0,63,30.29,10.0,NE,9.2,-,N/A,,Overcast,40,2013-01-05 16:53:00
12:53 PM,68.0,53.1,59,30.27,10.0,NE,8.1,-,N/A,,Overcast,40,2013-01-05 17:53:00
1:53 PM,71.1,55.0,57,30.23,10.0,ENE,6.9,-,N/A,,Mostly Cloudy,60,2013-01-05 18:53:00
2:09 PM,71.6,55.4,57,30.23,10.0,East,6.9,-,N/A,,Partly Cloudy,90,2013-01-05 19:09:00
2:53 PM,73.0,55.9,55,30.22,10.0,ENE,8.1,-,N/A,,Clear,60,2013-01-05 19:53:00
3:53 PM,73.9,57.0,55,30.23,10.0,NNE,5.8,-,N/A,,Mostly Cloudy,20,2013-01-05 20:53:00
4:53 PM,70.0,57.0,63,30.23,10.0,NNE,8.1,-,N/A,,Clear,30,2013-01-05 21:53:00
5:53 PM,68.0,57.0,68,30.24,10.0,NNE,5.8,-,N/A,,Overcast,30,2013-01-05 22:53:00
6:53 PM,66.0,57.9,75,30.26,10.0,NNE,5.8,-,N/A,,Overcast,30,2013-01-05 23:53:00
7:53 PM,64.9,57.0,75,30.28,10.0,NNE,6.9,-,N/A,,Overcast,30,2013-01-06 00:53:00
8:53 PM,64.0,57.0,78,30.27,10.0,NE,6.9,-,N/A,,Overcast,40,2013-01-06 01:53:00
9:53 PM,64.0,55.9,75,30.27,10.0,NNE,3.5,-,N/A,,Overcast,20,2013-01-06 02:53:00
10:53 PM,63.0,55.9,78,30.26,10.0,NE,4.6,-,N/A,,Overcast,40,2013-01-06 03:53:00
11:53 PM,63.0,55.9,78,30.25,10.0,NE,3.5,-,N/A,,Overcast,40,2013-01-06 04:53:00